Jackson, KY

12:13 AM EDT on September 23, 2017 (GMT -0400)
Carroll

Weather History for KJKL - August, 2014

Change the Weather History Date:

Wednesday, August 6, 2014

  Actual Average Record
Temperature  
Mean Temperature 75 °F 75 °F  
Max Temperature 83 °F 85 °F 94 °F (2006)
Min Temperature 67 °F 66 °F 55 °F (1997)
Degree Days  
Heating Degree Days 0 0  
Month to date heating degree days 0 0  
Since 1 June heating degree days 3 12  
Since 1 July heating degree days 3 0  
Cooling Degree Days 10 10  
Month to date cooling degree days 45 60  
Year to date cooling degree days 772 740  
Since 1 June cooling degree days 581 604  
Growing Degree Days 24 (Base 50)    
Moisture  
Dew Point 67 °F    
Average Humidity 76    
Maximum Humidity 90    
Minimum Humidity 62    
Precipitation  
Precipitation 0.09 in 0.14 in 1.73 in (2012)
Month to date precipitation 0.31 0.84  
Year to date precipitation 30.06 30.70  
Snow  
Snow 0.00 in 0.00 in - ()
Month to date snowfall 0.0 0.0  
Since 1 June snowfall 0.0 0.0  
Since 1 July snowfall 0.0 0.0  
Snow Depth 0.00 in    
Sea Level Pressure  
Sea Level Pressure 30.00 in    
Wind  
Wind Speed 1 mph (NW)    
Max Wind Speed 8 mph    
Max Gust Speed 12 mph    
Visibility 7 miles    
Events Rain , Thunderstorm    
T = Trace of Precipitation, MM = Missing Value Source: NWS Daily Summary

Daily Weather History Graph

Daily Weather History Graph

Search for Another Location

Airport or City:

Trip Planner

Search our weather history database for the weather conditions in past years. The results will help you decide how hot, cold, wet, or windy it might be!

Date:

Astronomy

Aug. 06, 2014 Rise Set
Actual Time 6:41 AM EDT 8:36 PM EDT
Civil Twilight 6:12 AM EDT 9:04 PM EDT
Nautical Twilight 5:38 AM EDT 9:39 PM EDT
Astronomical Twilight 5:00 AM EDT 10:16 PM EDT
Moon 4:51 PM EDT (8/6) 2:16 AM EDT (8/6)
Length of Visible Light 14h 52m
Length of Day
13h 54m
Waxing Gibbous, 77% of the Moon is Illuminated
Aug 6
Waxing Gibbous
Aug 10
Full
Aug 17
Last Quarter
Aug 25
New
Sep 2
First Quarter

Hourly Weather History & Observations

Time (EDT) Temp. Heat Index Dew Point Humidity Pressure Visibility Wind Dir Wind Speed Gust Speed Precip Events Conditions
12:53 AM 69.1 °F - 63.0 °F 81% 30.02 in 8.0 mi Calm Calm - N/A   Scattered Clouds
1:53 AM 69.1 °F - 64.0 °F 84% 30.01 in 7.0 mi Calm Calm - N/A   Overcast
2:53 AM 70.0 °F - 64.0 °F 81% 30.00 in 7.0 mi Calm Calm - N/A   Overcast
3:53 AM 69.1 °F - 64.0 °F 84% 29.99 in 7.0 mi Calm Calm - N/A   Overcast
4:53 AM 69.1 °F - 63.0 °F 81% 29.99 in 7.0 mi Calm Calm - N/A   Overcast
5:53 AM 68.0 °F - 63.0 °F 84% 29.99 in 7.0 mi Calm Calm - N/A   Overcast
6:53 AM 66.9 °F - 63.0 °F 87% 29.99 in 6.0 mi Calm Calm - N/A   Mostly Cloudy
7:53 AM 69.1 °F - 64.0 °F 84% 30.00 in 6.0 mi Calm Calm - N/A   Haze
8:53 AM 70.0 °F - 64.0 °F 81% 30.01 in 6.0 mi Calm Calm - N/A   Haze
9:53 AM 72.0 °F - 64.9 °F 78% 30.01 in 8.0 mi Calm Calm - N/A   Scattered Clouds
10:53 AM 75.9 °F - 64.9 °F 69% 30.01 in 8.0 mi Calm Calm - N/A   Clear
11:53 AM 79.0 °F - 66.0 °F 64% 30.01 in 9.0 mi Calm Calm - N/A   Clear
1:53 PM 82.0 °F 84.9 °F 68.0 °F 62% 29.99 in 10.0 mi North - - N/A   Clear
2:53 PM 80.6 °F 82.7 °F 66.2 °F 61% 30.02 in 9.0 mi Variable 3.5 mph - N/A   Partly Cloudy
3:53 PM 82.9 °F 86.5 °F 69.1 °F 63% 29.96 in 9.0 mi Calm Calm - N/A   Scattered Clouds
4:14 PM 79.0 °F - 68.0 °F 69% 30.01 in 1.5 mi Calm Calm - 0.00 in Rain , Thunderstorm Light Rain
4:25 PM 73.9 °F - 70.0 °F 87% 30.01 in 2.0 mi Calm Calm - 0.09 in Rain , Thunderstorm Light Rain
4:29 PM 73.9 °F - 69.1 °F 85% 30.01 in 4.0 mi Variable 4.6 mph - 0.09 in Rain , Thunderstorm Light Thunderstorms and Rain
4:40 PM 75.0 °F - 68.0 °F 79% 30.01 in 5.0 mi Variable 5.8 mph - 0.09 in Rain , Thunderstorm Light Thunderstorms and Rain
4:51 PM 73.4 °F - 69.8 °F 88% 30.02 in 6.0 mi Variable 4.6 mph - 0.09 in Rain , Thunderstorm Light Rain
4:53 PM 73.9 °F - 69.1 °F 85% 29.98 in 6.0 mi Variable 5.8 mph - 0.09 in Rain , Thunderstorm Light Thunderstorms and Rain
5:14 PM 75.0 °F - 69.1 °F 82% 30.01 in 7.0 mi Calm Calm - 0.00 in Thunderstorm Mostly Cloudy
5:22 PM 77.0 °F - 69.1 °F 76% 30.01 in 8.0 mi Calm Calm - 0.00 in   Partly Cloudy
5:53 PM 79.0 °F - 64.9 °F 62% 29.96 in 10.0 mi NW 5.8 mph - 0.00 in   Partly Cloudy
6:53 PM 78.1 °F - 69.1 °F 74% 29.97 in 10.0 mi Calm Calm - N/A   Clear
7:53 PM 75.0 °F - 69.1 °F 82% 29.97 in 10.0 mi Calm Calm - N/A   Clear
8:53 PM 73.0 °F - 68.0 °F 84% 29.98 in 10.0 mi Calm Calm - N/A   Clear
9:53 PM 73.0 °F - 66.9 °F 81% 29.98 in 10.0 mi Calm Calm - N/A   Clear
10:53 PM 72.0 °F - 68.0 °F 87% 29.99 in 8.0 mi Calm Calm - N/A   Partly Cloudy
11:53 PM 70.0 °F - 66.9 °F 90% 30.00 in 6.0 mi Calm Calm - N/A   Clear